Location: Les Jeannots
(43.2262°N, 5.5774°E)
Time: 02:46:57
(UTC+00:00)

MOS 1-B Rocket - Pass Details

Date: 05 July 2020
Orbit: 891 x 1605 km, 99.1° (Epoch: 04 August)

Event Time Altitude Azimuth Distance (km) Brightness Sun altitude
Rises 22:35:58 0° 13° (NNE) 4,427 8.4 -22.4°
Reaches altitude 10° 22:38:53 10° 14° (NNE) 3,352 7.6 -22.5°
Maximum altitude 22:46:34 89° 292° (WNW) 1,168 4.3 -22.9°
Enters shadow 22:49:27 38° 197° (SSW) 1,620 4.7 -23.0°
